Volver al catálogo

STARLINK-33833

ActivoComunicacionesVLEO
NORAD 63498·PAYLOAD·🇺🇸 United States

Lanzado Apr 7, 2025 desde Vandenberg Space Force Base

Loading…

Próximos Pases (próximas 24 horas)

TLE

ActualizadoSource: CelesTrak SupGP

Época: Sep 15, 2026, 03:16 UTC

1 63498C 25071F   26258.13659722  .00059739  00000+0  19203-2 0  2580
2 63498  53.1600 338.9935 0001156  91.1159  92.7683 15.31684147    12

Sigue STARLINK-33833 en tiempo real con AllMySat

Download on the App Store